Theta_e
321 318 312 322 323 324 327 327 326 330 332 336 334 329 332 333 334 331 328 328 327 325 324 323 322 321 320 320 320 320 320 320 319 319 319 319 318 317 316 315 315 316 316 317 316 313 313 313 311
321 312 320 327 322 327 325 325 327 330 335 335 334 333 333 335 335 330 328 328 326 325 324 324 323 322 321 320 321 320 320 319 319 319 319 319 319 319 318 317 316 317 318 318 318 320 322 324 324
318 321 324 324 324 325 325 327 334 332 332 333 335 332 334 335 335 330 329 327 327 324 325 324 324 323 321 321 321 321 320 320 319 320 320 320 320 320 320 319 317 316 318 319 320 322 323 325 327
314 322 324 325 327 327 325 329 328 329 330 333 336 332 335 335 334 333 331 330 328 327 325 324 324 323 322 321 321 321 320 320 320 320 320 320 321 321 321 321 320 318 317 321 321 321 324 331 332
319 325 322 324 325 327 328 329 328 327 330 336 336 331 334 335 335 333 331 330 329 329 327 325 323 323 322 321 321 321 321 320 320 320 320 320 321 321 321 321 321 321 319 321 325 321 321 327 327
324 323 324 324 324 326 326 328 328 331 334 336 335 331 334 336 335 332 330 330 329 329 329 329 325 323 322 323 321 321 321 320 319 320 320 320 321 321 321 321 321 321 321 323 324 323 323 323 322
322 320 323 324 325 326 327 328 328 327 331 334 334 333 332 334 333 331 332 332 331 331 330 330 330 325 322 322 321 321 321 320 320 319 320 320 320 321 321 321 321 321 323 325 326 327 328 328 327
323 320 324 322 324 325 326 327 329 328 328 331 333 332 331 332 333 333 333 334 333 332 332 332 332 330 328 327 322 321 320 320 320 319 319 320 320 320 321 321 321 322 323 326 327 329 329 328 326
329 321 321 323 323 324 324 323 328 328 328 328 330 332 332 332 332 333 334 334 334 334 333 333 333 333 332 331 325 321 321 320 319 319 319 319 320 320 320 321 322 323 324 327 328 330 330 329 327
328 325 324 321 322 323 323 323 324 325 327 327 329 331 332 332 332 332 333 333 334 334 334 333 334 334 333 333 330 325 323 321 320 320 319 319 319 320 320 321 322 323 326 327 330 332 331 329 328
329 331 327 325 324 325 327 325 326 325 325 326 329 329 329 330 330 332 332 333 332 332 332 333 333 334 334 334 333 331 328 327 322 321 320 319 318 319 320 321 322 323 327 328 327 332 331 329 328
327 328 330 330 330 330 327 328 326 326 325 326 327 328 329 329 330 329 329 331 332 332 331 330 332 333 334 334 334 334 333 332 329 325 322 320 319 318 319 320 321 322 326 330 327 331 332 330 329
322 325 326 330 331 330 329 327 327 327 327 328 329 329 329 328 327 328 328 329 329 330 330 330 330 330 330 333 334 333 334 334 333 329 326 323 321 319 319 319 320 321 327 332 328 329 332 331 330
315 317 319 321 321 323 324 325 326 327 327 327 326 326 326 326 327 327 328 328 329 328 328 328 329 330 329 330 330 331 332 331 332 333 331 328 324 321 321 320 320 321 329 334 332 330 331 330 331
314 313 314 315 316 317 321 322 324 324 325 325 325 326 326 327 327 327 327 327 327 328 328 328 328 329 329 329 328 330 330 329 331 333 334 334 331 323 322 322 322 324 333 336 333 332 330 330 331
315 314 315 316 316 317 320 323 323 324 325 326 326 326 326 327 327 327 327 327 327 328 328 329 328 329 329 329 328 328 328 329 332 334 335 337 333 331 331 332 328 333 333 333 331 333 330 331 332
313 318 317 318 318 318 319 322 323 324 323 323 324 325 325 326 326 326 326 326 327 327 327 328 328 328 329 329 327 328 328 329 332 334 337 338 338 339 338 334 335 336 334 331 332 334 333 333 330
316 316 317 319 319 319 320 320 321 322 322 321 322 322 323 323 325 325 326 327 327 327 327 328 328 328 329 328 328 329 329 332 333 337 340 339 340 340 339 338 338 335 332 332 332 332 330 329 328
312 313 316 318 318 320 320 320 320 320 321 321 322 322 323 323 325 325 325 326 327 326 326 327 328 328 328 329 328 329 330 333 337 341 340 341 341 341 341 337 335 333 332 329 330 331 328 327 327
311 311 312 314 315 315 315 318 317 318 320 320 321 322 322 322 324 325 325 326 326 327 328 328 328 327 328 327 328 330 331 337 340 342 342 341 341 340 336 333 332 333 332 332 328 329 328 326 327
310 311 312 313 314 314 314 315 315 315 316 318 320 321 322 323 322 322 323 325 324 325 328 328 328 328 327 328 331 334 340 342 343 342 341 339 337 335 333 331 333 333 331 331 328 329 327 328 327
307 311 312 314 313 314 313 315 314 314 315 315 316 318 318 320 321 322 322 323 324 325 328 328 327 327 329 331 335 337 340 342 342 341 340 337 335 332 331 332 333 332 332 330 328 327 327 327 325
308 309 311 312 312 313 313 312 314 313 314 314 315 316 318 319 319 321 321 322 324 325 328 329 328 331 333 334 338 340 342 342 341 340 338 335 332 332 333 333 333 333 331 329 326 325 325 325 324
307 308 309 310 311 312 313 313 314 313 314 315 314 317 319 320 320 322 322 322 324 325 328 331 331 334 336 339 342 343 342 341 340 334 332 332 332 332 333 334 333 331 328 325 324 324 325 326 325
306 304 306 310 311 313 313 313 314 313 314 314 314 315 317 318 319 320 320 322 324 326 331 333 336 336 339 340 340 339 338 335 333 332 332 333 333 333 333 333 330 328 326 324 325 325 324 324 324
303 304 306 312 314 312 313 315 315 314 315 316 316 317 317 318 319 319 321 323 327 332 336 336 337 337 339 340 339 335 334 333 332 332 333 332 331 332 330 328 327 326 324 323 323 323 324 324 325
309 304 305 306 307 308 312 314 315 315 315 315 314 316 317 318 319 321 326 330 333 336 336 336 337 339 340 339 336 335 334 332 333 332 331 331 329 330 326 326 326 325 324 324 325 325 326 326 325
308 309 305 303 309 311 312 313 315 315 315 315 314 314 318 319 323 328 333 335 337 337 338 339 339 337 336 335 334 333 333 332 331 330 329 330 328 326 326 325 325 325 324 326 326 326 327 327 326
307 310 309 305 307 311 312 312 313 314 315 315 314 316 318 321 330 334 336 337 337 337 338 339 338 335 334 334 333 332 330 328 329 330 328 328 326 326 325 325 325 326 326 327 327 326 326 326 325
307 310 310 308 311 308 310 311 313 313 312 312 315 318 327 327 334 336 337 338 337 336 337 337 336 335 334 333 327 324 326 328 330 329 329 328 328 326 325 327 326 326 326 327 326 326 325 325 323
Wind_Speed
7 3 7 6 3 4 4 7 3 4 1 4 6 5 12 14 8 5 23 22 20 23 23 19 17 17 15 13 13 12 11 11 10 9 8 7 6 5 4 3 3 2 2 3 3 3 3 4 5
8 6 7 3 4 3 5 6 7 5 3 4 11 3 2 2 5 16 25 25 23 23 20 19 18 17 16 16 16 15 14 13 11 10 8 6 5 3 2 1 0 1 1 2 3 3 3 3 4
7 10 5 4 4 5 5 4 1 6 18 16 5 9 6 5 9 29 22 24 23 21 14 16 18 19 19 19 19 17 17 15 14 12 10 8 6 4 2 1 2 3 3 2 3 4 4 4 4
10 5 1 3 7 6 4 3 7 10 22 11 3 4 4 9 15 20 23 19 18 14 15 17 20 20 20 21 20 19 20 19 18 16 13 11 9 6 3 0 2 4 4 3 3 5 6 7 7
11 3 2 3 6 4 4 13 16 11 6 5 4 1 4 8 15 17 17 15 13 13 16 18 20 21 22 21 22 22 22 22 21 19 16 14 12 9 5 3 3 6 7 5 5 5 6 8 11
5 3 0 6 6 1 5 12 16 9 8 4 4 11 7 15 14 15 12 10 8 10 15 17 21 23 23 23 25 25 25 24 23 22 20 17 15 12 9 6 5 5 7 7 6 7 8 9 11
5 3 4 4 3 4 4 5 4 4 4 8 1 7 3 20 16 13 13 11 11 16 17 18 20 24 26 27 27 27 27 27 26 25 23 21 19 15 13 9 7 6 7 7 6 7 8 9 12
6 3 3 5 3 5 5 4 5 10 6 16 5 3 4 21 18 20 19 16 15 17 19 20 21 23 24 26 31 30 30 30 29 28 27 25 23 19 17 13 11 9 9 7 6 6 9 10 11
9 2 5 7 8 5 6 10 18 15 10 23 15 3 3 13 17 18 22 24 24 26 27 28 27 28 28 28 33 33 32 33 32 31 31 30 29 25 22 18 14 12 11 9 8 7 8 8 8
6 5 9 8 10 4 8 6 24 11 6 13 16 7 6 9 17 22 26 26 30 31 32 31 33 33 34 33 35 36 35 36 37 37 36 36 34 29 25 21 17 16 13 12 10 9 10 8 7
8 10 17 15 18 14 11 13 22 15 11 17 11 27 21 16 14 20 27 30 26 28 31 35 34 37 41 40 38 38 37 39 41 41 40 40 37 33 31 26 22 18 15 15 12 11 12 10 8
6 15 22 20 18 9 12 16 15 25 26 29 30 28 28 31 26 22 21 26 30 31 31 27 34 36 39 42 43 40 40 42 44 44 43 43 41 38 34 30 24 21 18 18 14 13 15 13 11
16 9 11 22 25 21 22 23 21 25 31 37 38 34 30 32 31 29 24 23 23 26 31 33 31 29 32 40 42 39 40 42 46 47 45 44 43 41 35 32 26 23 21 20 17 16 18 16 13
2 9 24 24 25 19 14 23 25 28 33 32 35 36 32 33 34 32 31 30 29 32 34 33 33 34 31 29 28 33 34 33 35 42 46 44 43 42 35 32 29 26 23 20 17 16 16 17 17
16 9 10 13 7 8 8 23 27 35 35 34 32 34 38 37 33 32 33 37 41 41 40 30 28 34 34 32 27 31 29 29 30 37 44 41 40 37 33 31 28 26 21 20 19 16 18 20 20
4 5 15 15 14 7 8 34 7 16 24 34 34 33 35 33 37 41 43 44 44 37 37 39 37 30 34 33 27 24 28 29 34 38 39 35 29 25 25 25 25 20 20 20 22 19 20 21 22
5 15 15 11 6 8 16 32 12 26 24 27 31 35 39 42 45 45 46 48 45 44 42 40 38 34 32 32 27 28 26 27 32 32 29 25 23 22 24 25 21 20 17 21 22 21 20 23 25
10 15 4 4 4 10 18 31 19 24 22 27 30 34 37 40 46 50 48 41 41 40 36 38 35 30 31 29 27 31 30 32 29 27 21 21 20 21 19 15 18 17 19 19 20 20 21 22 22
8 4 2 2 7 13 19 26 21 20 26 29 36 37 40 45 44 45 49 49 41 43 38 41 30 30 32 27 28 32 32 30 25 20 19 18 18 18 17 16 18 20 16 11 15 19 20 21 20
10 9 8 5 10 4 10 18 14 11 14 22 26 30 32 34 44 38 33 34 38 29 29 26 27 31 29 26 26 29 26 25 19 18 18 18 19 18 15 15 16 16 15 15 16 17 19 18 16
7 11 10 7 9 16 13 20 15 13 17 26 34 35 35 31 34 40 36 30 33 30 26 27 25 27 26 28 26 23 19 18 19 18 17 16 16 13 13 11 12 15 17 17 16 17 16 14 14
15 4 8 5 5 10 5 18 20 19 21 16 18 34 29 34 38 40 37 36 36 31 30 28 25 26 25 22 21 23 25 22 19 17 15 14 12 12 11 11 15 18 17 17 16 16 14 14 14
8 12 9 12 10 3 6 5 23 12 17 20 21 31 37 44 43 41 40 36 34 26 31 28 25 24 20 18 17 19 20 19 17 15 13 12 13 13 15 17 17 16 16 16 14 10 9 11 11
4 4 9 10 3 5 10 8 27 12 19 19 14 21 33 34 32 30 26 29 27 19 28 27 23 21 17 16 16 17 19 19 18 16 16 16 15 16 19 18 17 16 14 11 9 9 10 11 12
4 3 1 1 4 12 12 11 25 7 2 6 8 17 26 31 34 37 37 34 25 23 28 25 22 20 18 17 18 18 19 19 17 16 15 15 15 16 15 16 16 11 8 9 10 10 10 11 11
7 9 4 6 4 5 14 13 10 16 20 25 22 22 26 29 34 35 34 29 24 28 27 24 23 20 19 20 19 19 18 15 12 14 14 12 11 12 13 11 9 8 8 9 9 8 8 8 8
3 4 6 3 3 2 5 15 17 20 15 15 10 18 28 34 29 25 21 20 24 28 26 25 22 21 21 21 20 19 17 14 15 14 12 10 10 10 9 7 8 8 7 6 6 6 7 7 7
6 4 4 1 4 5 6 8 12 3 11 18 11 9 24 20 20 18 17 22 28 26 25 24 22 23 25 23 20 17 15 14 13 11 10 9 8 6 6 7 6 7 6 7 7 6 5 7 7
1 2 2 3 5 4 4 6 7 11 8 6 11 22 25 27 22 22 23 27 27 25 26 25 25 27 26 22 18 15 13 11 9 7 6 7 8 7 6 5 5 5 7 7 6 6 7 8 7
4 4 3 3 8 5 2 10 9 10 7 8 16 27 30 20 25 26 29 30 28 27 29 29 28 27 24 18 15 14 13 11 9 6 6 8 8 6 7 6 5 4 4 4 4 5 7 7 8
Wind_Direction
223 212 162 153 81 70 260 260 238 271 238 300 331 161 173 187 162 208 160 166 167 173 172 178 187 183 182 182 181 181 179 179 172 165 157 152 150 147 152 160 177 186 238 269 266 240 238 256 257
211 169 163 144 109 123 253 245 228 237 252 303 102 29 60 219 190 151 162 174 176 177 172 182 187 189 191 191 190 194 193 194 190 185 179 174 169 158 142 88 303 251 247 240 246 256 262 267 276
179 169 184 152 165 182 227 235 274 310 317 301 121 124 144 194 169 161 166 169 174 176 181 192 194 197 199 198 199 202 205 205 202 201 201 195 194 190 171 73 335 325 318 288 264 265 280 276 277
170 185 215 151 225 247 217 313 304 317 313 282 105 86 148 179 156 162 168 164 161 170 191 204 203 203 206 207 208 211 214 212 210 210 210 209 211 210 203 46 338 322 312 295 282 278 272 277 282
178 174 222 242 243 238 260 274 293 293 257 258 110 188 145 167 158 165 158 165 164 181 199 209 212 211 212 216 218 219 221 221 218 216 217 218 219 219 222 241 307 326 317 303 288 293 279 274 280
161 148 125 240 243 282 259 266 285 273 265 248 164 134 161 196 188 171 176 174 178 208 205 216 218 218 219 228 226 224 226 226 225 224 223 224 227 225 228 236 272 308 310 304 303 301 297 286 278
156 126 214 253 268 316 262 286 228 295 251 243 312 136 220 196 191 207 199 201 212 212 225 223 223 222 223 229 231 230 231 229 229 230 229 229 232 233 236 239 254 281 292 291 304 308 305 296 282
206 122 241 237 189 268 251 253 171 37 336 347 185 186 231 218 194 200 204 215 219 224 232 237 237 230 231 238 234 234 235 235 234 234 234 234 236 235 240 241 249 270 278 280 286 298 305 308 296
194 124 225 228 167 228 332 353 281 311 302 316 330 161 220 199 205 212 213 217 225 228 233 235 241 240 237 243 239 234 236 238 237 239 238 237 237 236 239 242 248 260 273 272 272 278 294 305 311
184 182 224 215 213 195 291 314 298 316 336 295 314 15 322 195 217 221 218 231 229 232 237 245 241 246 243 241 242 236 237 239 238 240 240 238 238 238 242 243 245 254 262 263 265 271 282 292 297
207 217 228 247 233 248 261 281 271 291 296 258 270 294 295 293 262 242 240 236 244 244 245 249 247 245 243 243 245 244 241 243 241 242 243 241 240 238 240 242 242 251 256 258 262 260 273 276 273
249 222 230 255 249 253 254 265 254 261 260 271 283 283 290 299 288 277 259 247 247 246 248 261 252 245 242 243 245 250 251 250 247 245 244 242 242 240 241 244 243 248 255 255 258 262 263 264 264
246 240 243 247 251 253 266 265 261 257 263 272 281 286 286 285 289 295 277 281 277 268 262 272 266 254 246 242 243 247 251 255 253 248 246 246 245 242 245 246 245 249 251 252 257 259 258 263 272
167 234 245 253 265 261 259 267 265 263 269 268 273 277 276 279 286 287 288 292 289 297 296 280 273 265 254 248 237 241 248 260 261 257 250 247 248 246 247 249 250 247 249 250 258 257 261 269 281
259 289 279 240 221 242 297 269 254 254 265 270 269 271 277 282 281 276 284 288 289 289 292 278 280 270 258 252 239 239 251 263 261 261 254 250 250 252 249 250 247 245 245 253 254 249 254 264 275
222 187 245 261 229 226 186 258 237 247 248 258 267 274 278 276 279 284 287 290 293 287 280 274 282 272 259 251 247 252 255 256 256 259 259 251 244 244 248 248 239 236 248 257 255 246 251 257 271
235 238 231 262 213 207 205 261 259 266 263 262 271 272 274 277 279 282 285 286 287 284 287 279 274 273 262 240 249 250 257 254 254 256 256 239 235 234 240 232 221 236 255 262 259 253 257 266 272
222 230 274 209 226 209 229 253 253 252 264 272 273 275 276 278 279 283 284 285 282 288 288 282 270 262 242 243 246 246 249 246 248 250 244 232 228 230 236 229 230 243 256 259 256 261 270 274 277
315 344 273 337 219 217 231 254 257 255 255 256 260 263 266 266 276 282 286 287 283 286 282 282 259 245 233 236 240 240 243 241 240 236 227 219 221 227 222 224 245 244 262 285 275 271 273 275 274
259 268 273 276 269 277 277 277 283 271 254 252 251 253 256 270 280 282 287 284 284 289 276 262 243 236 236 245 251 245 246 235 234 221 212 216 220 220 243 254 237 247 272 270 279 275 273 269 262
230 231 251 247 307 298 307 286 282 257 246 253 256 258 261 264 272 281 286 285 293 295 258 237 235 230 237 242 241 237 228 201 191 196 203 204 207 234 244 238 238 256 266 277 278 274 271 256 257
257 221 257 254 207 257 190 286 274 270 263 252 246 259 261 267 271 273 274 281 288 283 245 231 229 232 235 237 232 228 221 203 202 210 203 205 213 213 235 243 247 257 267 280 280 273 261 250 247
245 233 238 226 245 237 249 293 272 227 257 249 240 249 261 265 269 274 273 279 287 262 234 227 226 227 223 224 218 218 215 212 202 191 201 211 212 219 231 233 249 262 274 278 269 252 239 228 231
238 219 230 233 155 250 220 202 277 247 244 247 238 229 248 256 266 269 271 283 280 257 229 220 217 208 205 198 196 200 200 202 195 189 193 204 219 230 224 236 254 266 270 262 250 234 235 237 238
170 87 307 174 187 231 209 198 236 270 304 236 244 255 260 267 268 272 278 280 268 237 208 204 198 188 183 181 180 189 192 186 184 190 200 208 218 222 231 249 262 261 245 244 238 238 238 239 239
182 167 185 185 179 225 248 230 238 232 257 260 266 270 281 279 278 276 275 266 240 202 191 188 182 178 172 168 174 177 184 179 185 194 196 206 222 241 251 256 246 224 235 237 234 229 222 219 218
201 168 193 12 224 244 242 258 278 274 278 279 285 289 284 279 267 272 264 231 199 184 183 180 173 168 167 169 173 177 181 187 188 190 206 225 243 250 250 222 208 220 217 216 202 197 205 213 227
161 196 88 9 218 236 252 254 235 276 249 271 278 277 292 281 252 237 213 192 179 174 173 172 168 166 165 168 175 180 187 187 196 207 217 226 229 214 190 187 202 202 209 215 212 215 227 235 231
348 184 208 172 181 224 295 258 193 204 238 283 295 302 296 279 219 201 184 173 166 168 170 170 166 164 167 172 172 179 183 175 176 184 191 187 177 159 163 168 181 204 220 225 228 235 241 233 230
250 287 137 172 231 249 251 261 306 282 334 320 308 319 321 228 193 180 169 166 165 169 167 165 167 168 169 170 170 166 163 165 166 161 174 170 165 160 152 156 163 179 213 237 247 234 233 231 228